When you browse on this site, cookies collect data to enhance your experience and personalize the content and advertising you see.
Visit our Privacy Policy to learn more. By continuing to use the site, you agree to this use of cookies and data.

Previsão horária em Burhimahi

Hoje, 3 Julho, Sexta-feira

Tempo Temperatura Precipitação Vento Pressão Humidade
00:00 +15°C° 0 mm 2 m/s 663 mmHg 73%
01:00 +15°C° 0 mm 2 m/s 662 mmHg 72%
02:00 +15°C° 0 mm 2 m/s 662 mmHg 70%
03:00 +15°C° 0 mm 2 m/s 662 mmHg 71%
04:00 +16°C° 0 mm 2 m/s 662 mmHg 68%
05:00 +18°C° 0 mm 1 m/s 663 mmHg 65%
06:00 +19°C° 0 mm 1 m/s 663 mmHg 62%
07:00 +20°C° 0 mm 2 m/s 664 mmHg 57%
08:00 +23°C° 0 mm 2 m/s 664 mmHg 51%
09:00 +25°C° 0 mm 2 m/s 665 mmHg 45%
10:00 +25°C° 0 mm 3 m/s 665 mmHg 44%
11:00 +26°C° 0 mm 3 m/s 665 mmHg 43%
12:00 +26°C° 0 mm 3 m/s 665 mmHg 41%
13:00 +26°C° 0.2 mm 4 m/s 665 mmHg 45%
14:00 +26°C° 0.2 mm 4 m/s 665 mmHg 48%
15:00 +26°C° 0.2 mm 4 m/s 664 mmHg 51%
16:00 +25°C° 0.1 mm 4 m/s 664 mmHg 54%
17:00 +24°C° 0.1 mm 3 m/s 664 mmHg 57%
18:00 +22°C° 0.1 mm 3 m/s 664 mmHg 60%
19:00 +21°C° 0 mm 3 m/s 663 mmHg 64%
20:00 +19°C° 0 mm 2 m/s 663 mmHg 67%
21:00 +17°C° 0 mm 2 m/s 663 mmHg 71%
22:00 +17°C° 0 mm 2 m/s 663 mmHg 70%
23:00 +17°C° 0 mm 2 m/s 663 mmHg 69%

Amanhã, 4 Julho, Sábado

Tempo Temperatura Precipitação Vento Pressão Humidade
00:00 +17°C° 0 mm 2 m/s 663 mmHg 68%
01:00 +17°C° 0 mm 2 m/s 663 mmHg 67%
02:00 +16°C° 0 mm 2 m/s 662 mmHg 66%
03:00 +16°C° 0 mm 2 m/s 662 mmHg 66%
04:00 +17°C° 0 mm 2 m/s 663 mmHg 64%
05:00 +18°C° 0 mm 2 m/s 663 mmHg 62%
06:00 +20°C° 0 mm 2 m/s 664 mmHg 60%
07:00 +21°C° 0 mm 2 m/s 664 mmHg 54%
08:00 +24°C° 0 mm 3 m/s 664 mmHg 49%
09:00 +26°C° 0 mm 4 m/s 665 mmHg 43%
10:00 +26°C° 0.1 mm 5 m/s 665 mmHg 41%
11:00 +26°C° 0.1 mm 6 m/s 665 mmHg 40%
12:00 +27°C° 0.1 mm 7 m/s 665 mmHg 38%
13:00 +27°C° 0.2 mm 6 m/s 664 mmHg 37%
14:00 +26°C° 0.2 mm 6 m/s 664 mmHg 37%
15:00 +26°C° 0.2 mm 6 m/s 663 mmHg 37%
16:00 +25°C° 0.2 mm 5 m/s 663 mmHg 40%
17:00 +23°C° 0.2 mm 4 m/s 663 mmHg 43%
18:00 +22°C° 0.2 mm 3 m/s 662 mmHg 47%
19:00 +20°C° 0.1 mm 3 m/s 662 mmHg 49%
20:00 +19°C° 0.1 mm 2 m/s 662 mmHg 51%
21:00 +17°C° 0.1 mm 2 m/s 661 mmHg 53%
22:00 +17°C° 0 mm 2 m/s 661 mmHg 54%
23:00 +17°C° 0 mm 2 m/s 661 mmHg 55%

Depois de amanhã, 5 Julho, Domingo

Tempo Temperatura Precipitação Vento Pressão Humidade
00:00 +17°C° 0 mm 2 m/s 661 mmHg 56%
01:00 +16°C° 0 mm 2 m/s 661 mmHg 57%
02:00 +16°C° 0 mm 2 m/s 661 mmHg 58%
03:00 +16°C° 0 mm 2 m/s 661 mmHg 59%
04:00 +17°C° 0 mm 2 m/s 661 mmHg 58%
05:00 +18°C° 0 mm 2 m/s 661 mmHg 58%
06:00 +19°C° 0 mm 2 m/s 662 mmHg 57%
07:00 +21°C° 0 mm 2 m/s 662 mmHg 48%
08:00 +24°C° 0 mm 3 m/s 662 mmHg 39%
09:00 +27°C° 0 mm 4 m/s 663 mmHg 30%
10:00 +27°C° 0 mm 5 m/s 663 mmHg 29%
11:00 +28°C° 0 mm 5 m/s 663 mmHg 28%
12:00 +28°C° 0 mm 5 m/s 663 mmHg 27%
13:00 +28°C° 0 mm 5 m/s 662 mmHg 29%
14:00 +28°C° 0 mm 5 m/s 662 mmHg 30%
15:00 +27°C° 0 mm 5 m/s 662 mmHg 31%
16:00 +27°C° 0 mm 5 m/s 661 mmHg 35%
17:00 +26°C° 0 mm 4 m/s 661 mmHg 38%
18:00 +25°C° 0 mm 3 m/s 661 mmHg 42%
19:00 +22°C° 0 mm 3 m/s 661 mmHg 43%
20:00 +20°C° 0 mm 3 m/s 660 mmHg 43%
21:00 +19°C° 0 mm 2 m/s 660 mmHg 44%
22:00 +18°C° 0 mm 2 m/s 660 mmHg 45%
23:00 +18°C° 0 mm 2 m/s 660 mmHg 45%

6 Julho, Segunda-feira

Tempo Temperatura Precipitação Vento Pressão Humidade
00:00 +18°C° 0 mm 2 m/s 660 mmHg 46%
01:00 +18°C° 0 mm 2 m/s 660 mmHg 47%
02:00 +17°C° 0 mm 2 m/s 659 mmHg 49%
03:00 +17°C° 0 mm 2 m/s 659 mmHg 51%
04:00 +18°C° 0 mm 2 m/s 660 mmHg 51%
05:00 +19°C° 0 mm 2 m/s 660 mmHg 51%
06:00 +20°C° 0 mm 2 m/s 660 mmHg 52%
07:00 +22°C° 0 mm 3 m/s 661 mmHg 45%
08:00 +25°C° 0 mm 4 m/s 662 mmHg 38%
09:00 +28°C° 0 mm 5 m/s 662 mmHg 32%
10:00 +29°C° 0 mm 5 m/s 662 mmHg 31%
11:00 +29°C° 0 mm 5 m/s 662 mmHg 30%
12:00 +30°C° 0 mm 6 m/s 662 mmHg 29%
13:00 +30°C° 0 mm 6 m/s 662 mmHg 30%
14:00 +29°C° 0 mm 6 m/s 662 mmHg 31%
15:00 +29°C° 0 mm 6 m/s 661 mmHg 32%
16:00 +28°C° 0 mm 5 m/s 661 mmHg 36%
17:00 +27°C° 0 mm 4 m/s 661 mmHg 39%
18:00 +26°C° 0 mm 3 m/s 660 mmHg 43%
19:00 +24°C° 0 mm 3 m/s 660 mmHg 45%
20:00 +21°C° 0 mm 3 m/s 660 mmHg 46%
21:00 +20°C° 0 mm 2 m/s 660 mmHg 48%
22:00 +19°C° 0 mm 2 m/s 660 mmHg 47%
23:00 +19°C° 0 mm 2 m/s 659 mmHg 46%

7 Julho, Terça-feira

Tempo Temperatura Precipitação Vento Pressão Humidade
00:00 +19°C° 0 mm 2 m/s 659 mmHg 45%
01:00 +19°C° 0 mm 2 m/s 659 mmHg 44%
02:00 +18°C° 0 mm 2 m/s 659 mmHg 44%
03:00 +18°C° 0 mm 2 m/s 659 mmHg 44%
04:00 +19°C° 0 mm 2 m/s 659 mmHg 46%
05:00 +20°C° 0 mm 2 m/s 659 mmHg 47%
06:00 +21°C° 0 mm 2 m/s 660 mmHg 48%
07:00 +24°C° 0 mm 3 m/s 660 mmHg 42%
08:00 +27°C° 0 mm 3 m/s 661 mmHg 37%
09:00 +29°C° 0 mm 4 m/s 661 mmHg 31%
10:00 +29°C° 0 mm 4 m/s 661 mmHg 30%
11:00 +30°C° 0 mm 5 m/s 661 mmHg 30%
12:00 +32°C° 0 mm 6 m/s 661 mmHg 29%
13:00 +32°C° 0 mm 6 m/s 661 mmHg 29%
14:00 +32°C° 0 mm 6 m/s 661 mmHg 29%
15:00 +30°C° 0 mm 6 m/s 661 mmHg 30%
16:00 +29°C° 0 mm 5 m/s 660 mmHg 33%
17:00 +28°C° 0 mm 4 m/s 660 mmHg 36%
18:00 +27°C° 0 mm 3 m/s 659 mmHg 39%
19:00 +25°C° 0 mm 3 m/s 659 mmHg 41%
20:00 +22°C° 0 mm 3 m/s 659 mmHg 42%
21:00 +21°C° 0 mm 2 m/s 659 mmHg 44%
22:00 +20°C° 0 mm 2 m/s 659 mmHg 44%
23:00 +20°C° 0 mm 2 m/s 659 mmHg 43%

8 Julho, Quarta-feira

Tempo Temperatura Precipitação Vento Pressão Humidade
00:00 +20°C° 0 mm 2 m/s 659 mmHg 43%
01:00 +19°C° 0 mm 2 m/s 659 mmHg 42%
02:00 +19°C° 0 mm 2 m/s 659 mmHg 42%
03:00 +19°C° 0 mm 2 m/s 659 mmHg 41%
04:00 +20°C° 0 mm 2 m/s 659 mmHg 42%
05:00 +21°C° 0 mm 2 m/s 659 mmHg 43%
06:00 +23°C° 0 mm 2 m/s 659 mmHg 44%
07:00 +25°C° 0 mm 2 m/s 660 mmHg 39%
08:00 +27°C° 0 mm 3 m/s 660 mmHg 34%
09:00 +30°C° 0 mm 3 m/s 661 mmHg 28%
10:00 +30°C° 0 mm 4 m/s 661 mmHg 27%
11:00 +32°C° 0 mm 4 m/s 661 mmHg 27%
12:00 +32°C° 0 mm 5 m/s 661 mmHg 26%
13:00 +32°C° 0 mm 5 m/s 661 mmHg 27%
14:00 +32°C° 0 mm 5 m/s 660 mmHg 28%
15:00 +30°C° 0 mm 5 m/s 660 mmHg 30%
16:00 +29°C° 0 mm 4 m/s 660 mmHg 33%
17:00 +28°C° 0 mm 3 m/s 659 mmHg 37%
18:00 +27°C° 0 mm 2 m/s 659 mmHg 41%
19:00 +25°C° 0.1 mm 2 m/s 658 mmHg 43%
20:00 +23°C° 0.1 mm 2 m/s 658 mmHg 46%
21:00 +21°C° 0.1 mm 2 m/s 658 mmHg 48%
22:00 +20°C° 0.1 mm 2 m/s 658 mmHg 50%
23:00 +20°C° 0.1 mm 2 m/s 658 mmHg 53%
Mostrar mais